Weather History for Tillamook, OR

Change the Weather History Date:

Sunday, August 18, 2013

  Actual Average (KMMV) Record (KMMV)
Temperature  
Mean Temperature 64 °F 66 °F  
Max Temperature 75 °F 82 °F 104 °F (1897)
Min Temperature 53 °F 50 °F 34 °F (1970)
Degree Days  
Heating Degree Days 1 1  
Month to date heating degree days 18  
Since 1 July heating degree days 62  
Cooling Degree Days 0 3  
Month to date cooling degree days 54  
Year to date cooling degree days 154  
Growing Degree Days 14 (Base 50)    
Moisture  
Dew Point 58 °F    
Average Humidity 81    
Maximum Humidity 100    
Minimum Humidity 57    
Precipitation  
Precipitation 0.00 in 0.02 in 0.59 in (1924)
Month to date precipitation 0.27  
Year to date precipitation 22.02  
Sea Level Pressure  
Sea Level Pressure 30.14 in    
Wind  
Wind Speed 3 mph (WNW)    
Max Wind Speed 14 mph    
Max Gust Speed 18 mph    
Visibility 9 miles    
Events Fog    
T = Trace of Precipitation, MM = Missing Value Source: NWS Daily Summary

Daily Weather History Graph

Daily Weather History Graph

Search for Another Location

Airport:

Trip Planner

Search our weather history database for the weather conditions in past years. The results will help you decide how hot, cold, wet, or windy it might be!

Date:

Astronomy

Aug. 18, 2013 Rise Set
Actual Time 7:20 AM MDT 9:16 PM MDT
Civil Twilight 6:48 AM MDT 9:48 PM MDT
Nautical Twilight 6:09 AM MDT 10:27 PM MDT
Astronomical Twilight 5:26 AM MDT 11:10 PM MDT
Moon 7:30 PM MDT (8/18) 4:32 AM MDT (8/18)
Length of Visible Light 15h 00m
Length of Day
13h 56m
Waxing Gibbous, 92% of the Moon is Illuminated
Aug 18
Waxing Gibbous
Aug 20
Full
Aug 28
Last Quarter
Sep 5
New
Sep 12
First Quarter

Hourly Weather History & Observations

Time (MDT) Temp. Dew Point Humidity Pressure Visibility Wind Dir Wind Speed Gust Speed Precip Events Conditions
12:15 AM 62.6 °F 59.0 °F 88% 30.13 in 10.0 mi West 3.5 mph - N/A   Overcast
12:35 AM 62.6 °F 59.0 °F 88% 30.13 in 10.0 mi West 3.5 mph - N/A   Overcast
12:55 AM 62.6 °F 59.0 °F 88% 30.13 in 10.0 mi Calm Calm - N/A   Mostly Cloudy
1:15 AM 62.6 °F 59.0 °F 88% 30.13 in 10.0 mi Calm Calm - N/A   Scattered Clouds
1:35 AM 60.8 °F 57.2 °F 88% 30.13 in 10.0 mi Calm Calm - N/A   Clear
1:55 AM 60.8 °F 57.2 °F 88% 30.13 in 10.0 mi SSE 3.5 mph - N/A   Clear
2:15 AM 60.8 °F 59.0 °F 94% 30.13 in 10.0 mi Calm Calm - N/A   Clear
2:35 AM 59.0 °F 59.0 °F 100% 30.13 in 10.0 mi Calm Calm - N/A   Clear
2:55 AM 59.0 °F 59.0 °F 100% 30.13 in 7.0 mi Calm Calm - N/A   Clear
3:15 AM 55.4 °F 55.4 °F 100% 30.13 in 10.0 mi Calm Calm - N/A   Clear
3:35 AM 57.2 °F 57.2 °F 100% 30.12 in 1.0 mi Calm Calm - N/A   Overcast
3:55 AM 55.4 °F 55.4 °F 100% 30.13 in 7.0 mi Calm Calm - N/A   Overcast
4:15 AM 55.4 °F 55.4 °F 100% 30.13 in 2.0 mi Calm Calm - N/A   Overcast
4:35 AM 55.4 °F 55.4 °F 100% 30.13 in 0.5 mi Calm Calm - N/A Fog Fog
4:55 AM 55.4 °F 55.4 °F 100% 30.14 in 0.2 mi Calm Calm - N/A Fog Fog
5:15 AM 55.4 °F 55.4 °F 100% 30.14 in 0.5 mi SE 3.5 mph - N/A Fog Fog
5:35 AM 55.4 °F 55.4 °F 100% 30.13 in 10.0 mi Calm Calm - N/A   Scattered Clouds
5:55 AM 53.6 °F 53.6 °F 100% 30.14 in 10.0 mi Calm Calm - N/A   Scattered Clouds
6:15 AM 55.4 °F 55.4 °F 100% 30.14 in 0.2 mi Calm Calm - N/A Fog Fog
6:35 AM 55.4 °F 55.4 °F 100% 30.14 in 0.2 mi Calm Calm - N/A Fog Fog
6:55 AM 55.4 °F 55.4 °F 100% 30.14 in 7.0 mi Calm Calm - N/A   Overcast
7:15 AM 53.6 °F 53.6 °F 100% 30.14 in 3.0 mi ESE 3.5 mph - N/A   Scattered Clouds
7:35 AM 53.6 °F 53.6 °F 100% 30.15 in 0.5 mi Calm Calm - N/A Fog Fog
7:55 AM 53.6 °F 53.6 °F 100% 30.16 in 10.0 mi Calm Calm - N/A   Overcast
8:15 AM 53.6 °F 53.6 °F 100% 30.15 in 7.0 mi SE 3.5 mph - N/A   Overcast
8:35 AM 55.4 °F 55.4 °F 100% 30.15 in 10.0 mi Calm Calm - N/A   Scattered Clouds
8:55 AM 55.4 °F 55.4 °F 100% 30.15 in 10.0 mi Calm Calm - N/A   Clear
9:15 AM 57.2 °F 57.2 °F 100% 30.15 in 10.0 mi Calm Calm - N/A   Clear
9:35 AM 59.0 °F 59.0 °F 100% 30.16 in 10.0 mi Calm Calm - N/A   Clear
9:55 AM 62.6 °F 62.6 °F 100% 30.16 in 10.0 mi Calm Calm - N/A   Clear
10:15 AM 64.4 °F 59.0 °F 83% 30.15 in 10.0 mi Calm Calm - N/A   Clear
10:35 AM 66.2 °F 57.2 °F 73% 30.15 in 10.0 mi Calm Calm - N/A   Clear
10:55 AM 68.0 °F 57.2 °F 68% 30.16 in 10.0 mi Calm Calm - N/A   Clear
11:15 AM 68.0 °F 57.2 °F 68% 30.16 in 10.0 mi Calm Calm - N/A   Scattered Clouds
11:35 AM 71.6 °F 59.0 °F 64% 30.15 in 10.0 mi Calm Calm - N/A   Scattered Clouds
11:55 AM 71.6 °F 59.0 °F 64% 30.15 in 10.0 mi WNW 4.6 mph - N/A   Clear
12:15 PM 73.4 °F 59.0 °F 61% 30.16 in 10.0 mi NW 5.8 mph - N/A   Clear
12:35 PM 71.6 °F 59.0 °F 64% 30.16 in 10.0 mi WSW 9.2 mph - N/A   Mostly Cloudy
12:55 PM 71.6 °F 59.0 °F 64% 30.16 in 10.0 mi WSW 8.1 mph - N/A   Mostly Cloudy
1:15 PM 73.4 °F 59.0 °F 61% 30.16 in 10.0 mi WSW 6.9 mph - N/A   Scattered Clouds
1:35 PM 73.4 °F 59.0 °F 61% 30.16 in 10.0 mi SW 5.8 mph - N/A   Mostly Cloudy
1:55 PM 73.4 °F 57.2 °F 57% 30.16 in 10.0 mi NNW 9.2 mph - N/A   Mostly Cloudy
2:15 PM 73.4 °F 59.0 °F 61% 30.16 in 10.0 mi NW 6.9 mph - N/A   Scattered Clouds
2:35 PM 73.4 °F 59.0 °F 61% 30.16 in 10.0 mi NW 11.5 mph - N/A   Scattered Clouds
2:55 PM 73.4 °F 59.0 °F 61% 30.16 in 10.0 mi NW 11.5 mph - N/A   Scattered Clouds
3:15 PM 73.4 °F 59.0 °F 61% 30.16 in 10.0 mi NW 9.2 mph - N/A   Scattered Clouds
3:35 PM 73.4 °F 59.0 °F 61% 30.15 in 10.0 mi WNW 8.1 mph - N/A   Clear
3:55 PM 75.2 °F 59.0 °F 57% 30.15 in 10.0 mi NW 8.1 mph - N/A   Clear
4:15 PM 75.2 °F 59.0 °F 57% 30.15 in 10.0 mi NW 11.5 mph - N/A   Clear
4:35 PM 75.2 °F 59.0 °F 57% 30.14 in 10.0 mi NW 11.5 mph - N/A   Clear
4:55 PM 73.4 °F 59.0 °F 61% 30.14 in 10.0 mi WNW 9.2 mph - N/A   Clear
5:15 PM 71.6 °F 60.8 °F 69% 30.14 in 10.0 mi NW 9.2 mph - N/A   Clear
5:35 PM 71.6 °F 60.8 °F 69% 30.14 in 10.0 mi WNW 13.8 mph 18.4 mph N/A   Clear
5:55 PM 71.6 °F 60.8 °F 69% 30.13 in 10.0 mi WNW 12.7 mph - N/A   Clear
6:15 PM 71.6 °F 60.8 °F 69% 30.13 in 10.0 mi WNW 13.8 mph - N/A   Clear
6:35 PM 71.6 °F 60.8 °F 69% 30.12 in 10.0 mi WNW 12.7 mph - N/A   Clear
6:55 PM 71.6 °F 60.8 °F 69% 30.12 in 10.0 mi WNW 13.8 mph - N/A   Clear
7:15 PM 71.6 °F 59.0 °F 64% 30.11 in 10.0 mi WNW 13.8 mph - N/A   Clear
7:35 PM 69.8 °F 59.0 °F 68% 30.11 in 10.0 mi WNW 10.4 mph - N/A   Clear
7:55 PM 69.8 °F 59.0 °F 68% 30.11 in 10.0 mi WNW 11.5 mph - N/A   Clear
8:15 PM 69.8 °F 59.0 °F 68% 30.11 in 10.0 mi NW 5.8 mph - N/A   Clear
8:35 PM 68.0 °F 59.0 °F 73% 30.11 in 10.0 mi WNW 6.9 mph - N/A   Clear
8:55 PM 68.0 °F 57.2 °F 68% 30.10 in 10.0 mi WNW 4.6 mph - N/A   Clear
9:15 PM 66.2 °F 57.2 °F 73% 30.11 in 10.0 mi Calm Calm - N/A   Clear
9:35 PM 64.4 °F 57.2 °F 77% 30.11 in 10.0 mi NNW 3.5 mph - N/A   Clear
9:55 PM 64.4 °F 57.2 °F 77% 30.11 in 10.0 mi Calm Calm - N/A   Clear
10:15 PM 62.6 °F 59.0 °F 88% 30.11 in 10.0 mi SSE 3.5 mph - N/A   Clear
10:35 PM 62.6 °F 59.0 °F 88% 30.12 in 10.0 mi Calm Calm - N/A   Clear
10:55 PM 62.6 °F 59.0 °F 88% 30.12 in 10.0 mi Calm Calm - N/A   Clear
11:15 PM 62.6 °F 59.0 °F 88% 30.12 in 10.0 mi SE 3.5 mph - N/A   Clear
11:35 PM 60.8 °F 57.2 °F 88% 30.12 in 10.0 mi Calm Calm - N/A   Clear
11:55 PM 60.8 °F 57.2 °F 88% 30.11 in 10.0 mi Calm Calm - N/A   Clear